Regional Weather Roundup
Issued by NWS Sioux Falls, SD

Home | Current Version | Previous Version | Graphics & Text | Print | Product List | Glossary On
Versions: 1 2 3 4 5 6 7 8 9 10 11 12 13 14 15 16 17 18 19 20 21 22 23 24 25 26 27 28 29 30 31 32 33 34 35 36 37 38 39 40 41 42 43 44 45 46 47 48 49 50
000
ASUS43 KFSD 162302
RWRFSD

WEATHER ROUNDUP FOR SE SOUTH DAKOTA/SW MINNESOTA/NW IOWA
NATIONAL WEATHER SERVICE SIOUX FALLS SD
600 PM CDT MON OCT 16 2017

NOTE: "FAIR" INDICATES FEW OR NO CLOUDS BELOW 12,000 FEET WITH NO
SIGNIFICANT WEATHER AND OR OBSTRUCTIONS TO VISIBILITY.


SDZ038>040-050-052>070-170000-
SOUTHEAST SOUTH DAKOTA

CITY           SKY/WX    TMP DP  RH WIND       PRES   REMARKS
BROOKINGS      CLOUDY    66  41  40 W8        30.00S
CHAMBERLAIN    NOT AVBL
HURON          CLEAR     64  41  42 SW5       29.99S
MADISON        FAIR      68  37  32 W9        30.00S
MITCHELL       CLEAR     70  41  34 W7        30.00S
SIOUX FALLS    PTCLDY    72  41  32 SW6       30.00S
WINNER         FAIR      71  42  35 N6        30.03R
YANKTON        CLEAR     74  40  29 SW8       30.00F
$$

MNZ071-072-080-081-089-090-097-098-170000-
SOUTHWEST MINNESOTA

CITY           SKY/WX    TMP DP  RH WIND       PRES   REMARKS
FAIRMONT       CLEAR     66  37  34 S13       30.04S
JACKSON        CLEAR     64  34  32 S13       30.04F
MARSHALL       CLEAR     69  38  32 SW12      29.98S
MONTEVIDEO     CLEAR     66  36  32 SW5       29.96F
PIPESTONE      CLEAR     66  37  34 SW6       30.00F
REDWOOD FALLS  CLEAR     67  36  31 SW10      29.99S
TRACY          CLEAR     68  39  33 SW9       30.00S
WORTHINGTON    CLEAR     67  38  34 S9        30.03F
$$

IAZ001>003-012>014-020>022-031-032-NEZ013-014-SDZ071-170000-
NORTHWEST IOWA

CITY           SKY/WX    TMP DP  RH WIND       PRES   REMARKS
CHEROKEE       CLEAR     64  40  42 S10       30.06F
DENISON        CLEAR     68  37  32 S9G15     30.11S
ESTHERVILLE    CLEAR     64  36  35 S12       30.04F
LE MARS        CLEAR     70  39  32 S8        30.03F
ORANGE CITY    CLEAR     70  43  37 S8        30.04S
SHELDON        CLOUDY    70  36  28 S12       30.02S
SIOUX CITY     CLEAR     72  39  30 S9        30.05F
SPENCER        CLEAR     69  36  29 S15G21    30.05F
STORM LAKE     CLEAR     66  37  34 S12       30.07F
$$

ABBREVIATIONS USED IN REMARKS
   TC - TEMPERATURE IN CELSIUS
  WCI - WIND CHILL INDEX
   HX - HEAT INDEX
  VSB - VISIBILITY





USA.gov is the U.S. government's official web portal to all federal, state and local government web resources and services.